                ,  0.730,  0.880,  1.030,  1.180,  1.330,  1.480,  1.630,  1.780,  1.930,  2.080,  2.230,  2.380,  2.530,  2.680,  2.830,  2.980,  3.130,  3.280,  3.430,  3.580,  3.730,  3.880,  4.030,  4.180,  4.330,  4.480,  4.630,  4.780,  4.930,  5.080,  5.230,  5.380
1999/07/14 00:00,   -0.2,   -0.3,   -0.7,   -0.6,   -0.6,   -0.4,  999.0,  999.0,   -0.7,   -0.8,   -1.2,   -1.2,   -1.0,   -0.9,   -0.7,   -0.9,   -1.1,   -1.2,  999.0,   -1.0,  999.0,  999.0,  999.0,   -1.2,  999.0,  999.0,   -1.1,  999.0,  999.0,  999.0,  999.0,  999.0
1999/07/14 00:10,   -0.1,   -0.3,   -0.6,   -0.7,   -0.7,   -0.7,  999.0,   -0.6,   -0.5,   -0.5,   -0.7,   -0.8,   -0.8,   -1.1,   -1.1,   -1.0,  999.0,   -1.0,  999.0,   -1.0,   -0.9,   -0.9,  999.0,  999.0,  999.0,  999.0,  999.0,  999.0,  999.0,  999.0,  999.0,  999.0
1999/07/14 00:20,   -0.2,   -0.6,   -0.8,   -0.9,   -0.7,   -0.6,   -0.9,  999.0,  999.0,  999.0,   -0.7,   -0.8,   -0.9,   -1.0,   -1.1,   -1.0,  999.0,   -0.9,   -1.0,   -0.9,   -0.9,  999.0,  999.0,  999.0,  999.0,  999.0,  999.0,  999.0,  999.0,  999.0,  999.0,  999.0
1999/07/14 00:30,   -0.9,   -1.0,   -1.1,   -0.9,   -0.8,   -0.5,   -0.7,   -0.7,  999.0,   -0.3,   -0.4,   -0.6,   -1.0,   -1.2,   -1.2,  999.0,  999.0,  999.0,  999.0,  999.0,  999.0,  999.0,   -1.0,  999.0,   -1.4,   -1.5,   -1.4,  999.0,  999.0,  999.0,  999.0,  999.0
1999/07/14 00:40,   -1.3,   -1.5,   -1.4,   -1.2,   -0.9,   -0.6,   -0.9,   -0.7,   -0.4,  999.0,   -0.4,   -0.5,   -0.7,   -0.8,   -0.9,   -1.0,   -0.9,   -1.0,  999.0,   -0.9,  999.0,  999.0,   -1.0,  999.0,   -1.2,   -1.3,  999.0,  999.0,  999.0,  999.0,  999.0,  999.0
1999/07/14 00:50,   -0.8,   -0.9,   -0.9,   -0.7,   -0.6,   -0.7,   -0.8,   -0.7,   -0.5,   -0.6,   -0.7,   -0.6,   -0.7,   -0.9,   -1.0,   -0.9,  999.0,  999.0,   -0.9,   -1.0,  999.0,  999.0,  999.0,  999.0,   -1.4,   -1.4,  999.0,  999.0,  999.0,  999.0,  999.0,  999.0
1999/07/14 01:00,   -0.4,   -0.9,   -0.8,   -0.7,   -0.6,   -0.6,   -0.7,   -0.6,   -0.5,   -0.6,   -0.6,   -0.5,   -0.6,   -0.8,   -1.0,   -1.0,  999.0,  999.0,   -0.8,  999.0,  999.0,  999.0,  999.0,  999.0,  999.0,   -1.3,   -1.4,  999.0,  999.0,  999.0,  999.0,  999.0
1999/07/14 01:10,   -0.9,   -0.9,   -0.8,   -0.5,   -0.7,   -0.6,   -0.6,   -0.6,   -0.7,   -0.8,   -0.8,   -0.6,   -0.6,   -0.8,   -1.0,   -1.1,   -0.9,  999.0,   -1.2,  999.0,  999.0,   -0.9,  999.0,   -1.1,   -1.4,   -1.5,  999.0,  999.0,  999.0,  999.0,  999.0,  999.0
1999/07/14 01:20,   -0.7,   -0.7,   -0.6,   -0.5,   -0.5,   -0.5,   -0.5,   -0.5,   -0.4,   -0.6,   -0.8,   -0.7,   -0.7,   -0.8,   -1.0,   -1.1,  999.0,   -1.0,   -1.0,   -0.9,  999.0,  999.0,  999.0,   -1.0,   -1.3,  999.0,  999.0,  999.0,   -1.1,  999.0,  999.0,  999.0
1999/07/14 01:30,   -0.3,   -0.6,   -0.6,   -0.6,   -0.6,   -0.5,   -0.7,   -0.8,  999.0,   -0.6,   -0.7,   -0.7,   -0.7,   -0.9,   -1.0,   -1.2,  999.0,  999.0,   -1.1,  999.0,  999.0,  999.0,  999.0,   -1.0,   -1.2,   -1.3,   -1.4,   -1.3,  999.0,  999.0,  999.0,   -1.6
1999/07/14 01:40,   -0.2,   -0.3,   -0.6,   -0.6,   -0.2,   -0.7,   -0.5,   -0.7,   -0.7,   -0.8,   -0.7,   -0.7,   -0.7,   -1.0,   -1.1,  999.0,  999.0,  999.0,   -1.0,   -0.9,  999.0,  999.0,  999.0,  999.0,   -1.1,   -1.5,   -1.2,   -1.0,  999.0,  999.0,  999.0,   -1.4
1999/07/14 01:50,   -0.1,   -0.3,   -0.5,   -0.3,   -0.1,   -0.5,   -0.8,   -0.7,   -0.7,   -0.7,   -0.6,   -0.6,   -0.8,   -0.9,   -0.9,  999.0,  999.0,   -1.0,   -0.9,   -0.9,   -0.8,  999.0,  999.0,   -0.9,   -1.2,   -1.4,  999.0,  999.0,   -1.6,   -1.2,   -1.2,   -1.5
1999/07/14 02:00,   -0.0,   -0.2,   -0.5,   -0.5,   -0.4,   -0.4,   -0.7,   -0.6,   -0.6,   -0.6,   -0.6,   -0.7,   -1.0,   -1.0,   -0.9,  999.0,   -0.9,  999.0,   -0.9,   -0.9,  999.0,  999.0,  999.0,   -0.8,   -1.0,   -1.3,  999.0,   -1.1,   -1.6,  999.0,  999.0,   -1.6
1999/07/14 02:10,   -0.2,   -0.4,   -0.5,   -0.5,   -0.4,   -0.5,   -0.7,   -0.8,   -0.7,   -0.8,   -0.6,   -0.7,   -0.8,   -0.8,   -0.9,   -1.1,  999.0,  999.0,   -1.0,   -0.9,  999.0,   -0.9,   -1.2,   -1.0,   -1.2,   -1.3,   -1.3,   -1.5,  999.0,  999.0,  999.0,   -1.2
1999/07/14 02:20,   -0.1,   -0.4,   -0.3,   -0.4,   -0.4,   -0.5,   -0.6,   -0.6,   -0.6,   -0.7,   -0.5,   -0.6,   -0.8,   -0.8,   -0.9,  999.0,  999.0,   -1.1,  999.0,  999.0,  999.0,   -1.0,   -1.2,   -1.2,   -1.2,   -1.3,   -1.1,  999.0,  999.0,  999.0,  999.0,  999.0
1999/07/14 02:30,   -0.4,   -0.5,   -0.4,   -0.4,   -0.4,   -0.4,   -0.6,   -0.6,   -0.5,   -0.7,   -0.6,   -0.5,   -0.6,   -0.7,   -0.7,  999.0,  999.0,  999.0,  999.0,  999.0,  999.0,   -1.2,   -1.3,   -1.2,  999.0,   -1.3,  999.0,  999.0,  999.0,  999.0,  999.0,  999.0
1999/07/14 02:40,   -0.6,   -0.6,   -0.4,   -0.5,   -0.5,   -0.4,   -0.6,  999.0,   -0.5,   -0.8,   -0.6,   -0.6,   -0.7,   -0.8,   -0.7,  999.0,  999.0,  999.0,   -1.2,  999.0,  999.0,   -1.2,   -1.3,  999.0,   -1.0,   -1.1,   -1.2,   -1.2,   -1.3,  999.0,  999.0,   -1.5
1999/07/14 02:50,   -0.5,   -0.6,   -0.5,   -0.5,   -0.3,   -0.4,   -0.4,   -0.5,   -0.6,   -0.7,   -0.7,  999.0,  999.0,   -0.7,   -0.8,  999.0,  999.0,   -1.2,   -1.2,   -1.1,   -1.1,   -1.0,   -1.1,   -1.1,   -1.1,   -1.0,   -1.1,   -1.2,   -1.4,  999.0,  999.0,   -1.5
1999/07/14 03:00,   -0.5,   -0.6,   -0.5,   -0.3,   -0.1,   -0.2,   -0.4,   -0.4,   -0.4,   -0.7,   -0.7,  999.0,  999.0,   -0.7,   -0.7,  999.0,   -1.0,   -1.2,   -1.2,   -1.1,  999.0,   -1.1,   -0.9,   -1.2,   -1.1,  999.0,   -1.0,   -1.1,   -1.4,   -1.2,   -1.0,   -1.3
1999/07/14 03:10,   -0.8,   -0.9,   -0.7,   -0.4,   -0.3,  999.0,   -0.5,   -0.5,  999.0,   -0.6,   -0.7,    0.0,  999.0,   -0.7,   -0.9,  999.0,   -0.8,  999.0,   -1.1,  999.0,  999.0,  999.0,  999.0,   -1.3,   -1.2,  999.0,   -1.1,   -1.3,   -1.4,   -1.1,   -1.3,   -1.4
1999/07/14 03:20,   -0.5,   -0.6,   -0.6,   -0.3,   -0.3,   -0.3,   -0.5,   -0.6,   -0.4,   -0.5,   -0.6,   -0.7,   -0.8,   -0.9,   -0.8,   -0.8,   -0.8,   -0.9,  999.0,   -1.3,  999.0,   -1.2,   -1.2,   -1.2,  999.0,   -1.0,   -1.1,   -1.2,   -1.1,   -1.0,   -1.3,   -1.5
1999/07/14 03:30,   -0.3,   -0.5,   -0.5,   -0.4,   -0.3,   -0.3,  999.0,  999.0,   -0.7,   -0.7,   -0.5,  999.0,   -0.8,   -0.8,   -0.7,   -0.7,   -0.8,   -0.9,   -1.2,  999.0,   -1.1,   -1.3,  999.0,  999.0,  999.0,  999.0,   -1.0,   -0.9,   -0.8,  999.0,   -1.2,  999.0
1999/07/14 03:40,   -0.5,   -0.7,   -0.6,   -0.4,   -0.3,   -0.4,   -0.6,   -0.5,   -0.6,   -0.7,   -0.5,  999.0,  999.0,  999.0,   -0.8,   -0.7,   -0.6,   -0.7,   -1.2,   -1.3,   -1.1,   -1.2,   -1.1,   -1.3,   -1.2,  999.0,   -1.0,   -1.1,   -0.8,   -1.5,   -1.4,  999.0
1999/07/14 03:50,   -0.1,   -0.2,   -0.3,   -0.2,   -0.3,   -0.5,   -0.5,   -0.5,   -0.5,   -0.4,   -0.5,   -0.6,  999.0,  999.0,  999.0,   -0.8,   -0.7,   -0.8,   -1.0,   -1.1,   -1.3,   -1.2,   -1.2,   -1.1,   -1.1,   -0.9,   -1.0,   -1.0,   -0.8,   -1.2,   -1.3,  999.0
1999/07/14 04:00,   -0.0,   -0.2,   -0.3,   -0.3,   -0.3,   -0.5,   -0.6,   -0.5,  999.0,   -0.5,   -0.5,  999.0,   -0.8,  999.0,   -0.9,   -0.8,   -0.8,   -1.0,   -1.0,   -1.1,   -1.1,  999.0,   -1.3,   -1.2,   -1.0,   -1.0,   -1.0,   -0.9,   -0.7,   -1.1,  999.0,  999.0
1999/07/14 04:10,   -0.1,   -0.2,   -0.2,   -0.3,   -0.2,   -0.6,   -0.8,   -0.6,   -0.6,   -0.7,   -0.6,   -0.2,   -0.7,   -0.9,   -0.9,   -0.7,   -0.7,   -0.9,   -1.2,   -1.0,   -1.2,  999.0,  999.0,   -1.3,   -1.1,   -1.2,  999.0,   -1.1,   -0.8,   -1.0,  999.0,  999.0
1999/07/14 04:20,   -0.3,   -0.3,   -0.3,   -0.3,   -0.2,   -0.6,   -0.7,   -0.5,   -0.5,   -0.5,   -0.5,   -0.3,  999.0,   -0.7,   -0.7,   -0.7,   -0.9,   -1.0,   -1.1,  999.0,   -1.4,  999.0,   -1.5,   -1.3,   -1.1,   -1.1,   -1.1,   -1.1,   -0.9,  999.0,  999.0,  999.0
1999/07/14 04:30,   -0.0,   -0.2,   -0.2,   -0.2,   -0.3,   -0.7,   -0.7,   -0.5,   -0.6,   -0.6,   -0.6,   -0.3,   -0.4,  999.0,   -0.6,   -0.6,   -0.8,   -1.0,   -1.0,   -1.2,   -1.3,  999.0,   -1.3,   -1.4,   -1.0,   -1.0,   -0.9,   -1.0,   -0.8,   -0.6,  999.0,  999.0
1999/07/14 04:40,   -0.2,  999.0,   -0.3,   -0.2,   -0.3,   -0.5,   -0.6,   -0.5,   -0.7,   -0.6,   -0.6,   -0.5,   -0.7,   -0.8,   -0.8,   -0.7,   -0.9,   -0.9,   -1.0,   -1.3,  999.0,   -1.3,   -1.4,   -1.3,   -1.2,   -1.3,   -1.4,   -1.2,   -0.8,   -0.6,   -0.7,  999.0
1999/07/14 04:50,   -0.2,   -0.3,   -0.3,   -0.2,   -0.4,   -0.6,   -0.6,   -0.5,   -0.7,   -0.7,   -0.6,   -0.2,   -0.6,   -0.7,   -0.8,   -0.7,   -0.9,   -0.9,   -1.0,   -1.2,  999.0,  999.0,   -1.3,   -1.2,   -1.0,   -1.3,   -1.6,  999.0,   -0.8,   -0.8,  999.0,  999.0
1999/07/14 05:00,   -0.0,   -0.2,   -0.1,   -0.3,   -0.6,   -0.6,   -0.7,  999.0,   -0.6,   -0.6,  999.0,  999.0,   -0.7,   -0.8,   -0.7,   -0.6,   -0.8,   -0.8,   -0.9,   -1.1,   -1.1,  999.0,   -1.2,   -1.2,  999.0,   -0.9,   -1.2,  999.0,  999.0,   -0.6,   -0.7,   -0.9
1999/07/14 05:10,    0.0,   -0.3,   -0.6,   -0.5,   -0.6,   -0.6,   -0.6,   -0.5,   -0.7,   -0.6,   -0.6,   -0.3,   -0.5,  999.0,   -0.6,   -0.6,   -0.6,   -0.7,   -0.9,   -1.1,   -1.1,   -1.1,  999.0,   -1.2,  999.0,   -1.1,   -1.2,  999.0,  999.0,   -0.6,   -0.9,   -1.0
1999/07/14 05:20,   -0.2,   -0.6,   -0.5,   -0.4,   -0.5,   -0.7,   -0.7,   -0.5,   -0.6,   -0.6,   -0.6,   -0.1,   -0.2,   -0.6,  999.0,   -0.6,   -0.6,   -0.7,   -1.0,   -1.1,   -1.1,   -1.1,   -1.1,   -1.1,   -1.0,   -1.0,   -1.2,  999.0,  999.0,   -0.5,   -0.7,   -1.0
1999/07/14 05:30,    0.1,   -0.3,   -0.4,   -0.5,   -0.5,   -0.7,   -0.8,   -0.7,   -0.7,   -0.7,   -0.8,    0.0,   -0.7,   -0.8,   -0.8,   -0.7,   -0.8,   -0.8,   -1.0,   -1.1,  999.0,  999.0,   -1.0,   -1.0,   -1.0,   -0.9,   -1.0,  999.0,   -0.7,  999.0,  999.0,  999.0
1999/07/14 05:40,   -0.2,   -0.8,   -0.9,   -0.7,   -0.7,   -0.7,   -0.7,   -0.5,   -0.5,  999.0,   -0.4,   -0.5,   -0.6,   -0.7,   -0.6,   -0.6,   -0.8,   -0.9,   -0.9,   -1.1,  999.0,   -1.1,  999.0,   -1.0,   -0.9,   -0.8,  999.0,  999.0,   -0.9,  999.0,   -0.9,   -1.1
1999/07/14 05:50,   -0.2,   -0.4,   -0.7,   -0.6,   -0.6,   -0.6,   -0.6,   -0.5,   -0.6,   -0.5,  999.0,   -0.3,   -0.4,   -0.8,   -0.6,   -0.4,   -0.6,   -0.8,   -0.9,   -1.0,   -1.1,  999.0,  999.0,   -0.9,   -0.8,   -0.8,  999.0,  999.0,   -0.9,  999.0,  999.0,  999.0
1999/07/14 06:00,   -0.0,   -0.5,   -0.6,   -0.7,   -0.6,   -0.5,   -0.4,   -0.3,  999.0,   -0.2,   -0.3,   -0.2,   -0.2,   -0.6,   -0.5,   -0.3,   -0.5,   -0.8,   -1.0,   -1.0,   -1.1,  999.0,   -1.3,  999.0,   -0.8,   -0.8,   -1.0,  999.0,   -0.7,  999.0,   -1.1,   -1.1
1999/07/14 06:10,   -0.1,   -0.5,   -0.7,   -0.9,  999.0,   -0.7,   -0.5,   -0.4,   -0.4,  999.0,   -0.4,   -0.1,   -0.1,   -0.8,   -0.6,   -0.7,   -0.7,   -0.8,   -0.9,   -1.0,   -1.0,  999.0,  999.0,   -0.9,   -0.9,   -0.9,  999.0,  999.0,   -1.0,   -0.9,   -1.2,   -1.4
1999/07/14 06:20,   -0.5,   -0.8,   -0.8,   -0.9,   -0.8,   -0.6,   -0.4,   -0.3,   -0.3,   -0.3,   -0.2,   -0.1,   -0.2,   -0.6,   -0.6,   -0.7,   -0.8,   -0.8,   -1.1,   -1.1,  999.0,   -1.3,  999.0,   -1.1,   -1.0,   -0.9,  999.0,   -1.1,   -1.1,   -0.9,   -1.0,   -1.1
1999/07/14 06:30,   -0.3,   -0.7,   -0.8,   -0.8,   -0.9,   -0.8,  999.0,  999.0,  999.0,   -0.3,   -0.3,   -0.4,   -0.4,   -0.6,   -0.6,  999.0,   -0.7,   -0.8,   -0.9,   -1.0,   -1.2,   -1.3,  999.0,   -1.1,   -0.9,  999.0,  999.0,  999.0,   -1.0,   -1.0,   -1.2,   -1.3
1999/07/14 06:40,   -0.3,  999.0,   -1.0,   -0.6,  999.0,   -0.7,   -0.5,   -0.3,   -0.3,   -0.2,   -0.3,   -0.2,   -0.2,   -0.7,   -0.7,   -0.5,   -0.7,   -0.9,   -0.9,   -0.9,   -1.0,  999.0,  999.0,   -1.1,   -1.1,  999.0,  999.0,  999.0,   -1.2,   -1.2,   -1.3,   -1.5
1999/07/14 06:50,   -0.2,   -0.9,   -0.8,   -0.5,   -0.6,   -0.6,   -0.6,   -0.2,   -0.3,   -0.2,   -0.2,   -0.2,   -0.0,   -0.5,   -0.6,   -0.6,   -0.8,   -0.9,   -0.8,   -0.8,   -1.1,   -1.2,  999.0,   -1.2,   -1.1,  999.0,  999.0,   -1.1,  999.0,   -1.4,   -1.5,   -1.6
1999/07/14 07:00,   -0.6,   -0.6,  999.0,   -0.3,   -0.3,   -0.4,   -0.4,   -0.4,  999.0,   -0.3,   -0.1,   -0.1,   -0.2,   -0.7,   -0.6,  999.0,   -0.8,   -0.8,   -0.8,   -0.8,   -1.0,  999.0,   -1.0,  999.0,  999.0,  999.0,  999.0,   -0.7,   -1.0,  999.0,   -1.2,   -1.5
1999/07/14 07:10,   -0.0,   -0.1,   -0.2,   -0.2,   -0.3,   -0.4,   -0.3,   -0.3,   -0.2,   -0.1,   -0.2,   -0.1,   -0.3,   -0.7,   -0.7,   -0.6,   -0.6,   -0.7,   -0.7,   -0.8,   -1.1,  999.0,   -1.0,  999.0,   -1.1,  999.0,  999.0,  999.0,   -0.9,  999.0,   -1.2,  999.0
1999/07/14 07:20,    0.2,   -0.0,   -0.3,  999.0,   -0.5,  999.0,   -0.5,  999.0,   -0.3,   -0.4,   -0.3,   -0.3,   -0.3,   -0.7,   -0.6,   -0.7,   -0.7,   -0.8,   -0.7,   -0.8,   -1.0,  999.0,   -1.1,  999.0,   -1.1,  999.0,  999.0,  999.0,   -1.0,   -0.9,   -1.2,   -1.5
1999/07/14 07:30,    0.1,   -0.1,   -0.2,   -0.3,   -0.3,   -0.3,   -0.4,   -0.4,  999.0,   -0.3,   -0.2,   -0.2,   -0.2,   -0.7,   -0.7,   -0.6,   -0.7,   -0.6,   -0.6,   -0.9,   -1.1,  999.0,   -1.0,   -1.0,   -1.1,   -1.0,   -1.1,   -1.1,   -1.0,   -1.0,   -1.3,   -1.4
1999/07/14 07:40,    0.2,    0.0,   -0.1,   -0.1,   -0.3,   -0.4,   -0.4,   -0.3,   -0.2,   -0.2,   -0.1,   -0.1,   -0.2,   -0.7,   -0.6,  999.0,   -0.7,   -0.7,   -0.7,   -0.9,   -1.2,  999.0,   -1.1,   -1.1,   -1.0,  999.0,   -0.9,   -0.9,   -1.0,   -1.2,   -1.4,  999.0
1999/07/14 07:50,    0.1,   -0.1,   -0.1,   -0.1,   -0.2,   -0.3,   -0.5,   -0.4,   -0.2,   -0.2,   -0.0,   -0.1,   -0.2,   -0.8,   -0.8,   -0.7,   -0.7,   -0.8,   -0.9,   -0.9,   -1.1,  999.0,   -1.1,   -1.1,   -1.0,   -1.0,   -0.9,   -0.8,   -0.9,   -1.2,   -1.3,   -1.4
1999/07/14 08:00,    0.1,   -0.0,   -0.0,   -0.1,   -0.2,   -0.3,  999.0,   -0.5,   -0.2,  999.0,   -0.1,   -0.2,   -0.1,   -0.7,   -0.7,   -0.7,   -0.7,   -0.8,   -1.0,   -1.3,   -1.4,  999.0,   -1.1,   -1.1,   -0.9,  999.0,   -0.9,   -0.8,   -0.8,   -1.1,   -1.3,   -1.4
1999/07/14 08:10,   -0.5,   -0.8,   -0.8,   -0.8,   -0.7,   -0.5,   -0.4,   -0.6,  999.0,  999.0,   -0.2,   -0.3,   -0.5,   -0.8,   -0.9,   -0.9,   -0.8,   -0.8,   -0.9,   -1.1,   -1.2,  999.0,   -0.9,   -0.9,   -0.8,   -0.8,  999.0,   -0.7,   -1.0,   -1.1,   -1.2,   -1.2
1999/07/14 08:20,   -0.3,   -0.7,   -0.7,   -0.7,   -0.6,   -0.5,   -0.5,   -0.5,   -0.4,   -0.2,   -0.2,   -0.3,   -0.4,   -0.5,   -0.6,   -0.7,   -0.7,   -0.9,  999.0,   -1.0,   -0.9,  999.0,   -1.0,   -0.9,   -0.9,   -1.0,  999.0,   -1.0,  999.0,  999.0,   -1.3,  999.0
1999/07/14 08:30,   -0.5,   -0.5,   -0.7,   -0.7,   -0.6,  999.0,   -0.5,   -0.4,   -0.2,   -0.1,   -0.0,   -0.1,   -0.3,   -0.5,   -0.6,   -0.7,   -0.7,   -0.8,   -0.9,   -1.2,   -1.3,  999.0,   -0.9,   -0.8,   -0.8,  999.0,  999.0,  999.0,  999.0,   -1.1,   -1.3,   -1.6
1999/07/14 08:40,   -0.5,   -0.6,   -0.8,   -0.7,   -0.6,   -0.5,  999.0,   -0.5,   -0.2,   -0.2,   -0.1,   -0.3,   -0.1,   -0.5,   -0.6,   -0.7,   -0.6,   -0.7,   -0.8,   -0.9,   -1.0,  999.0,   -0.8,   -0.9,   -0.9,  999.0,   -0.9,   -0.9,   -1.1,   -1.3,   -1.4,   -1.5
1999/07/14 08:50,   -0.4,   -0.6,   -0.6,   -0.5,   -0.3,  999.0,  999.0,   -0.2,   -0.1,   -0.0,   -0.1,   -0.3,   -0.5,   -0.4,   -0.6,   -0.7,   -0.7,   -0.7,   -0.9,   -1.1,  999.0,  999.0,  999.0,  999.0,   -0.9,   -0.9,   -1.0,   -1.0,   -1.2,   -1.5,   -1.5,   -1.4
1999/07/14 09:00,   -0.6,   -0.8,   -0.8,   -0.7,   -0.5,   -0.4,   -0.3,   -0.2,   -0.0,    0.1,  999.0,  999.0,   -0.2,   -0.3,   -0.5,   -0.5,   -0.7,   -0.7,   -1.0,  999.0,   -1.2,   -1.0,  999.0,   -1.0,   -0.9,   -1.0,   -0.9,   -1.0,   -1.3,   -1.6,   -1.6,   -1.6
1999/07/14 09:10,   -0.7,   -0.7,   -0.9,   -0.8,   -0.8,   -0.8,   -0.6,   -0.6,   -0.5,   -0.7,   -1.4,   -0.8,   -1.1,   -1.2,   -1.0,   -0.8,   -0.8,   -1.0,   -0.9,   -1.0,   -1.2,   -1.0,   -1.3,   -1.2,   -1.0,   -0.9,  999.0,  999.0,   -1.2,  999.0,   -1.4,   -1.3
1999/07/14 09:20,   -0.4,   -0.2,   -0.3,   -0.3,   -0.5,   -0.5,   -0.5,  999.0,   -1.3,   -0.9,   -1.4,   -1.4,   -1.4,   -1.4,   -1.2,   -1.1,   -1.1,   -1.1,   -0.9,   -1.1,   -1.0,   -1.1,   -1.0,   -1.2,   -1.1,   -1.0,   -0.9,   -1.1,   -1.3,   -1.3,  999.0,   -1.4
1999/07/14 09:30,   -0.2,   -0.1,   -0.2,   -0.2,   -0.3,  999.0,   -0.9,   -1.4,   -1.9,   -1.6,   -1.7,   -1.7,   -1.8,   -1.5,   -1.3,   -0.9,   -0.9,   -1.0,   -1.0,   -0.9,   -0.6,   -1.0,   -1.1,  999.0,  999.0,   -0.8,  999.0,  999.0,   -1.3,   -1.5,  999.0,  999.0
1999/07/14 09:40,    0.4,    0.1,   -0.2,   -0.2,   -0.3,  999.0,   -0.6,   -1.0,   -0.9,   -1.2,   -1.5,   -1.5,   -1.2,   -1.2,   -1.0,   -0.8,   -0.8,   -0.8,   -0.9,   -0.8,   -0.8,   -1.4,   -1.3,  999.0,  999.0,   -1.0,  999.0,  999.0,   -1.1,   -1.3,  999.0,  999.0
1999/07/14 09:50,    0.3,    0.1,   -0.2,   -0.3,   -0.4,  999.0,   -0.4,   -0.6,   -0.7,   -0.4,   -0.5,   -0.6,   -0.5,   -0.6,   -0.4,   -0.6,   -0.8,   -0.8,   -0.7,   -0.6,   -0.8,   -0.9,   -1.2,  999.0,  999.0,   -0.8,  999.0,  999.0,  999.0,   -1.1,   -1.2,   -1.1
1999/07/14 10:00,    0.3,  999.0,  999.0,   -0.2,   -0.1,   -0.3,  999.0,  999.0,   -0.4,   -0.2,   -0.2,   -0.2,   -0.1,   -0.2,   -0.5,   -0.7,   -0.7,   -0.7,   -0.7,   -0.7,   -0.7,   -1.1,   -1.4,   -1.4,   -1.3,  999.0,  999.0,  999.0,  999.0,   -1.2,  999.0,  999.0
1999/07/14 10:10,  999.0,   -0.1,   -0.4,  999.0,  999.0,   -0.5,   -0.4,  999.0,   -0.4,   -0.3,   -0.2,   -0.3,   -0.3,   -0.1,   -0.4,   -0.5,   -0.3,   -0.3,   -0.3,   -0.5,   -0.8,   -1.0,   -1.3,   -1.2,   -1.2,   -1.0,   -0.9,  999.0,   -1.0,   -1.2,   -1.4,   -1.3
1999/07/14 10:20,    0.1,   -0.1,   -0.3,   -0.3,   -0.2,   -0.2,   -0.1,  999.0,   -0.2,   -0.1,   -0.1,   -0.4,   -0.6,   -0.8,  999.0,   -0.4,   -0.6,   -0.7,   -0.6,   -0.8,   -1.0,   -1.2,  999.0,   -1.1,   -1.1,   -0.9,   -0.9,   -0.9,   -1.1,   -1.2,   -1.1,   -1.0
1999/07/14 10:30,    0.1,   -0.2,   -0.3,   -0.3,   -0.2,   -0.3,   -0.3,  999.0,   -0.2,   -0.3,   -0.4,   -0.5,   -0.5,   -0.5,   -0.4,   -0.4,  999.0,   -0.6,   -0.6,   -0.9,   -1.1,   -1.4,   -1.1,   -1.2,   -1.0,   -0.9,   -0.9,   -0.9,   -1.1,   -1.1,   -1.1,   -1.3
1999/07/14 10:40,    0.0,   -0.1,   -0.1,   -0.3,   -0.2,   -0.3,   -0.2,   -0.3,  999.0,   -0.4,  999.0,   -0.6,  999.0,   -0.7,   -0.6,   -0.5,   -0.6,   -0.7,   -0.9,   -0.7,   -0.9,   -1.1,   -1.2,  999.0,   -1.1,   -0.9,   -1.0,   -1.1,   -1.1,   -1.1,   -1.1,   -1.5
1999/07/14 10:50,   -0.0,   -0.2,   -0.2,   -0.3,   -0.3,   -0.3,   -0.3,   -0.3,   -0.2,   -0.3,   -0.5,   -0.7,   -0.7,   -0.7,   -0.5,   -0.6,   -0.7,   -0.6,   -0.2,   -0.6,  999.0,   -1.0,   -1.0,   -1.0,   -0.9,   -0.7,  999.0,   -0.9,   -0.9,   -0.9,   -1.1,  999.0
1999/07/14 11:00,    0.0,   -0.1,   -0.2,   -0.2,   -0.4,   -0.3,   -0.5,   -0.4,   -0.4,  999.0,   -0.6,   -0.8,   -0.7,   -0.6,  999.0,   -0.5,  999.0,   -0.4,  999.0,  999.0,   -1.1,   -1.2,   -1.2,   -1.1,   -0.9,   -1.0,  999.0,   -1.0,   -0.9,   -0.8,   -1.0,  999.0
1999/07/14 11:10,    0.1,   -0.1,   -0.2,   -0.2,   -0.3,   -0.4,   -0.6,   -0.5,   -0.5,   -0.5,   -0.6,   -0.8,   -0.6,   -0.5,  999.0,   -0.4,   -0.4,   -0.5,   -0.2,   -0.8,   -0.9,   -1.1,  999.0,   -1.0,   -0.8,   -1.0,   -0.9,   -1.0,   -0.6,   -0.5,   -0.8,   -1.0
1999/07/14 11:20,    0.2,   -0.1,   -0.2,   -0.2,   -0.2,   -0.4,   -0.5,   -0.5,   -0.6,   -0.5,   -0.5,   -0.5,   -0.5,   -0.6,   -0.6,   -0.7,   -0.6,   -0.7,   -0.7,   -0.9,   -1.1,  999.0,  999.0,  999.0,  999.0,   -1.2,  999.0,   -0.9,   -0.7,   -0.6,   -0.9,   -1.1
1999/07/14 11:30,    0.1,   -0.1,   -0.3,   -0.4,   -0.4,   -0.5,   -0.6,   -0.5,   -0.6,  999.0,   -0.6,   -0.6,  999.0,   -0.6,   -0.4,   -0.5,  999.0,   -0.5,   -0.6,   -0.7,   -0.7,   -1.0,   -1.0,  999.0,   -1.0,   -1.1,   -1.1,   -0.9,   -0.8,   -0.7,   -0.8,   -0.9
1999/07/14 11:40,    0.1,   -0.2,   -0.2,   -0.4,   -0.5,   -0.7,   -0.9,   -0.9,   -0.7,   -0.8,   -0.7,   -0.7,   -0.7,   -0.6,   -0.4,   -0.4,   -0.4,   -0.4,   -0.4,   -0.3,   -0.8,   -0.9,   -1.0,   -0.9,   -0.9,   -0.9,   -0.9,   -0.7,   -0.6,   -0.7,   -0.8,   -0.8
1999/07/14 11:50,   -0.3,  999.0,   -0.4,   -0.4,   -0.4,   -0.8,   -0.8,   -0.8,   -0.8,   -0.7,  999.0,   -0.7,   -0.6,   -0.5,   -0.4,   -0.5,   -0.5,  999.0,   -0.5,   -0.6,   -0.7,   -0.8,   -0.9,  999.0,  999.0,   -0.8,   -0.7,   -0.7,   -0.6,   -0.7,   -0.9,   -0.8
1999/07/14 12:00,   -0.1,   -0.3,   -0.3,   -0.4,   -0.6,   -0.8,   -0.6,   -0.6,   -0.7,   -0.6,   -0.7,   -0.6,   -0.6,  999.0,   -0.5,   -0.6,   -0.6,   -0.4,   -0.5,   -0.8,   -0.8,   -0.9,   -1.0,  999.0,   -0.9,  999.0,   -0.7,   -0.6,   -0.6,   -0.6,   -0.7,   -0.8
1999/07/14 12:10,    0.0,   -0.2,   -0.3,   -0.4,   -0.5,   -0.6,   -0.5,   -0.7,   -0.6,  999.0,   -0.5,   -0.4,   -0.7,   -0.4,  999.0,   -0.2,   -0.4,   -0.5,   -0.6,   -0.7,   -0.9,   -0.9,   -0.9,  999.0,   -0.9,  999.0,   -0.9,   -0.8,   -0.8,   -0.8,   -0.8,   -0.8
1999/07/14 12:20,    0.0,   -0.2,   -0.3,   -0.3,   -0.5,   -0.4,   -0.5,  999.0,   -0.6,   -0.5,   -0.5,   -0.7,   -0.7,   -0.7,   -0.5,  999.0,   -0.5,   -0.6,   -0.7,   -0.7,   -0.9,   -0.9,   -1.0,   -1.0,   -0.8,   -0.7,   -0.8,   -0.6,   -0.8,   -0.8,   -0.8,   -0.8
1999/07/14 12:30,   -0.1,   -0.2,   -0.5,   -0.4,   -0.5,   -0.6,   -0.6,   -0.5,   -0.6,   -0.6,  999.0,  999.0,   -0.5,   -0.6,   -0.5,   -0.5,   -0.4,  999.0,   -0.6,   -0.7,   -0.7,   -0.9,   -1.0,   -1.0,   -0.8,   -0.7,   -0.6,   -0.7,   -0.6,   -0.6,   -0.7,   -0.7
1999/07/14 12:40,   -0.3,   -0.6,   -0.7,   -0.6,   -0.6,   -0.6,   -0.6,   -0.6,   -0.6,   -0.5,   -0.5,   -0.3,   -0.4,  999.0,   -0.4,   -0.2,   -0.3,   -0.5,   -0.4,   -0.6,   -0.7,   -0.9,   -0.8,   -0.9,   -0.9,   -0.7,   -0.6,   -0.7,   -0.6,   -0.6,   -0.7,   -0.8
1999/07/14 12:50,   -0.2,   -0.4,   -0.5,   -0.5,  999.0,   -0.6,   -0.6,   -0.6,   -0.7,   -0.7,   -0.6,   -0.5,   -0.5,   -0.5,   -0.5,   -0.5,   -0.5,   -0.5,  999.0,  999.0,   -0.8,   -1.0,   -1.1,   -0.9,   -0.7,   -0.7,   -0.6,   -0.8,   -0.8,   -0.7,   -0.8,   -0.6
1999/07/14 13:00,   -0.1,   -0.2,   -0.3,   -0.5,   -0.6,   -0.6,  999.0,   -0.5,   -0.6,   -0.5,   -0.5,  999.0,  999.0,   -0.5,   -0.5,   -0.4,   -0.4,   -0.3,   -0.1,   -0.4,   -0.8,   -1.0,   -0.9,   -0.6,   -0.5,   -0.7,   -0.7,  999.0,   -0.9,   -0.8,   -0.8,   -0.2
1999/07/14 13:10,   -0.2,   -0.4,   -0.3,   -0.5,   -0.6,   -0.6,   -0.7,   -0.6,   -0.6,   -0.6,   -0.6,   -0.6,   -0.6,   -0.5,   -0.5,   -0.5,   -0.4,   -0.3,   -0.1,   -0.3,   -0.7,  999.0,   -0.7,   -0.7,   -0.8,   -0.7,   -0.8,   -0.9,   -1.0,   -0.9,   -0.9,   -0.5
1999/07/14 13:20,   -0.3,   -0.5,   -0.5,   -0.8,   -0.5,  999.0,   -0.7,   -0.7,   -0.6,   -0.6,   -0.6,   -0.4,   -0.5,   -0.3,   -0.3,   -0.2,   -0.3,   -0.3,   -0.1,   -0.3,   -1.0,   -1.0,   -0.6,  999.0,   -0.8,   -0.8,  999.0,   -0.9,   -0.9,   -0.9,   -0.8,   -0.2
1999/07/14 13:30,   -0.2,   -0.3,   -0.5,   -0.6,   -0.6,   -0.6,   -0.7,   -0.7,   -0.7,   -0.7,   -0.8,   -0.5,  999.0,  999.0,  999.0,   -0.5,  999.0,   -0.3,   -0.1,   -0.5,   -1.0,   -0.8,   -0.7,   -0.8,   -1.0,   -1.0,   -1.0,   -0.9,   -0.9,   -0.9,   -0.9,   -0.3
1999/07/14 13:40,   -0.5,   -0.5,   -0.5,   -0.6,   -0.7,   -0.7,   -0.6,   -0.6,   -0.6,   -0.6,   -0.6,   -0.7,  999.0,   -0.7,  999.0,   -0.5,  999.0,   -0.2,   -0.1,   -0.3,   -0.8,   -0.5,   -0.5,   -0.7,   -0.9,   -1.0,   -1.0,   -0.8,   -1.0,   -1.0,   -0.9,   -0.3
1999/07/14 13:50,   -0.5,   -0.3,   -0.5,   -0.6,   -0.5,  999.0,   -0.4,  999.0,   -0.4,   -0.5,   -0.6,   -0.8,   -0.8,   -0.8,   -0.8,   -0.4,  999.0,   -0.3,   -0.2,   -0.5,   -0.8,   -0.5,   -0.4,   -0.6,   -0.9,   -1.0,   -0.9,   -0.9,   -0.9,   -1.0,   -0.5,   -0.3
1999/07/14 14:00,   -0.4,   -0.3,   -0.6,   -0.7,   -0.7,   -0.6,  999.0,   -0.6,  999.0,   -0.5,   -0.6,   -0.7,   -0.6,   -0.7,   -0.6,   -0.7,  999.0,  999.0,   -0.3,   -0.6,  999.0,   -0.4,   -0.4,  999.0,  999.0,   -0.9,   -0.9,   -0.8,  999.0,  999.0,   -0.4,   -0.3
1999/07/14 14:10,   -0.3,   -0.4,   -0.6,   -0.7,   -0.6,  999.0,  999.0,  999.0,  999.0,   -0.6,   -0.5,   -0.6,  999.0,  999.0,   -0.5,  999.0,   -0.4,  999.0,   -0.3,   -0.5,   -0.6,   -0.5,   -0.6,   -0.7,   -1.0,   -0.9,   -0.8,   -0.9,   -0.9,  999.0,   -0.4,   -0.3
1999/07/14 14:20,   -0.1,   -0.3,   -0.5,   -0.7,   -0.7,   -0.5,   -0.4,   -0.6,   -0.5,   -0.5,   -0.6,   -0.6,  999.0,   -0.6,   -0.5,  999.0,   -0.5,   -0.4,   -0.2,   -0.5,   -0.7,   -0.5,  999.0,   -0.8,   -1.0,   -1.0,   -0.9,   -1.0,   -1.3,   -0.6,   -0.6,   -0.3
1999/07/14 14:30,   -0.2,   -0.4,  999.0,   -0.6,   -0.7,   -0.7,   -0.7,   -0.7,   -0.4,   -0.4,   -0.6,   -0.7,   -0.5,  999.0,   -0.5,  999.0,   -0.3,   -0.2,  999.0,   -0.4,   -0.6,  999.0,  999.0,   -0.8,   -1.0,   -0.9,   -0.8,   -1.0,   -0.9,   -0.4,   -0.5,   -0.2
1999/07/14 14:40,   -0.0,   -0.3,  999.0,   -0.6,   -0.7,   -0.7,   -0.6,   -0.7,   -0.7,   -0.6,   -0.7,  999.0,  999.0,   -0.7,   -0.3,   -0.3,  999.0,   -0.2,   -0.2,   -0.5,   -0.6,   -0.4,   -0.6,   -0.8,   -1.0,  999.0,   -0.9,  999.0,   -0.7,  999.0,   -0.4,   -0.2
1999/07/14 14:50,   -0.1,   -0.4,   -0.7,   -0.7,   -0.8,   -0.8,   -0.8,   -0.7,   -0.7,   -0.5,   -0.6,  999.0,   -0.7,   -0.4,   -0.3,   -0.2,  999.0,   -0.2,  999.0,   -0.4,  999.0,   -0.5,   -0.6,   -0.8,   -1.0,   -1.0,   -0.9,   -0.8,   -0.6,   -0.5,   -0.3,   -0.1
1999/07/14 15:00,   -0.2,   -0.5,  999.0,   -0.4,   -0.3,   -0.3,  999.0,   -0.4,   -0.3,   -0.2,   -0.4,  999.0,   -0.5,   -0.3,   -0.4,   -0.3,   -0.4,   -0.3,   -0.4,   -0.6,  999.0,   -0.5,   -0.7,   -0.7,   -0.9,  999.0,   -0.9,   -0.9,   -0.6,   -0.5,   -0.2,   -0.2
1999/07/14 15:10,   -0.0,   -0.2,   -0.6,   -0.5,   -0.5,   -0.5,  999.0,   -0.6,   -0.5,   -0.5,   -0.7,   -0.7,  999.0,   -0.4,   -0.1,   -0.2,   -0.3,   -0.3,   -0.5,   -0.6,  999.0,  999.0,   -0.6,   -0.7,   -1.0,  999.0,   -1.0,   -1.1,   -0.7,   -0.6,   -0.3,  999.0
1999/07/14 15:20,    0.1,   -0.2,  999.0,   -0.5,   -0.4,   -0.4,  999.0,   -0.5,   -0.5,   -0.5,   -0.7,   -0.7,  999.0,  999.0,   -0.4,   -0.4,   -0.4,   -0.4,   -0.4,   -0.5,  999.0,   -0.5,   -0.6,   -0.9,   -1.2,  999.0,   -1.1,   -0.8,   -0.7,   -0.6,   -0.3,   -0.3
1999/07/14 15:30,  999.0,   -0.2,   -0.4,   -0.5,   -0.5,  999.0,  999.0,   -0.6,  999.0,   -0.5,   -0.5,   -0.6,  999.0,   -0.5,   -0.5,   -0.3,   -0.5,  999.0,   -0.4,   -0.4,  999.0,  999.0,   -0.5,   -0.9,  999.0,  999.0,  999.0,   -1.0,  999.0,   -0.6,   -0.2,  999.0
1999/07/14 15:40,   -0.2,   -0.5,   -0.7,   -0.7,   -0.7,   -0.5,   -0.6,   -0.6,  999.0,  999.0,   -0.6,   -0.6,   -0.6,   -0.6,   -0.5,   -0.3,   -0.4,   -0.5,   -0.4,   -0.6,  999.0,   -0.8,   -0.8,   -0.8,   -1.2,   -1.1,   -1.0,   -0.8,   -0.6,   -0.4,   -0.2,   -0.2
1999/07/14 15:50,   -0.0,   -0.3,   -0.5,   -0.6,   -0.5,   -0.5,   -0.6,  999.0,  999.0,   -0.5,   -0.5,  999.0,  999.0,   -0.5,   -0.3,   -0.4,   -0.4,   -0.4,   -0.4,   -0.5,  999.0,  999.0,   -0.7,   -0.8,   -0.9,  999.0,  999.0,   -0.7,   -0.5,   -0.3,   -0.1,   -0.2
1999/07/14 16:00,   -0.2,   -0.5,   -0.4,   -0.5,   -0.5,   -0.5,   -0.6,   -0.7,   -0.8,   -0.6,   -0.6,  999.0,   -0.5,   -0.6,   -0.4,   -0.3,  999.0,   -0.5,   -0.5,   -0.6,  999.0,   -0.7,  999.0,   -1.0,  999.0,   -1.2,   -1.1,   -0.7,   -0.6,   -0.3,   -0.2,   -0.3
1999/07/14 16:10,    0.1,   -0.0,   -0.2,   -0.3,   -0.4,   -0.5,   -0.6,   -0.6,   -0.5,   -0.6,   -0.6,   -0.6,   -0.6,   -0.5,   -0.3,   -0.3,   -0.3,  999.0,   -0.5,   -0.6,  999.0,   -0.5,   -0.6,   -0.7,   -0.8,  999.0,   -0.9,   -0.7,   -0.5,   -0.3,   -0.0,   -0.2
1999/07/14 16:20,  999.0,   -0.1,   -0.3,   -0.3,   -0.5,   -0.4,   -0.5,   -0.5,  999.0,   -0.5,   -0.6,   -0.6,   -0.6,  999.0,   -0.7,   -0.3,   -0.3,   -0.5,   -0.5,  999.0,   -0.4,   -0.5,   -0.7,   -0.8,   -1.0,  999.0,   -1.0,   -0.8,   -0.8,   -0.6,   -0.5,  999.0
1999/07/14 16:30,    0.1,    0.1,   -0.2,   -0.4,   -0.5,   -0.6,   -0.7,   -0.7,   -0.6,   -0.5,   -0.5,   -0.2,   -0.3,   -0.3,   -0.3,   -0.2,  999.0,  999.0,   -0.4,   -0.5,   -0.4,   -0.6,   -0.8,   -1.0,   -1.2,   -1.4,   -1.3,   -1.0,   -0.8,   -0.6,   -0.5,   -0.6
1999/07/14 16:40,    0.1,    0.0,   -0.2,   -0.1,   -0.3,   -0.6,   -0.6,   -0.6,   -0.7,   -0.7,   -0.6,  999.0,   -0.5,   -0.5,   -0.7,   -0.4,  999.0,   -0.6,   -0.7,   -0.8,   -0.6,   -0.7,   -0.8,   -1.0,   -1.1,   -1.4,   -1.1,   -0.8,   -0.6,   -0.4,   -0.2,   -0.4
1999/07/14 16:50,    0.0,   -0.2,   -0.3,   -0.2,   -0.3,  999.0,   -0.4,   -0.6,   -0.8,   -0.7,   -0.8,  999.0,   -0.6,   -0.6,   -0.6,   -0.2,  999.0,   -0.2,   -0.4,   -0.4,   -0.6,   -0.6,   -0.6,   -0.9,   -1.0,   -1.2,   -0.9,   -0.7,   -0.5,  999.0,   -0.4,   -0.4
1999/07/14 17:00,    0.2,    0.0,   -0.1,   -0.1,   -0.3,  999.0,  999.0,   -0.8,   -0.7,   -0.8,   -0.7,   -0.7,   -0.6,   -0.5,   -0.6,   -0.4,   -0.4,   -0.4,   -0.5,   -0.6,   -0.7,   -0.7,   -0.8,   -1.1,  999.0,   -1.3,   -1.1,   -0.9,   -0.8,   -0.5,   -0.6,   -0.5
1999/07/14 17:10,    0.1,   -0.0,   -0.0,   -0.1,   -0.3,  999.0,   -0.5,   -0.8,   -0.8,   -0.9,   -0.8,   -0.8,   -0.7,   -0.4,   -0.4,   -0.4,   -0.5,   -0.5,   -0.7,   -0.7,   -0.7,   -0.7,   -0.9,   -1.2,   -1.3,   -1.5,   -1.1,   -0.9,   -0.8,   -0.4,   -0.5,   -0.5
1999/07/14 17:20,    0.0,    0.0,   -0.1,   -0.1,   -0.3,   -0.2,   -0.4,   -0.7,   -0.7,   -0.8,   -0.7,   -0.7,   -0.5,   -0.6,   -0.6,   -0.5,   -0.6,   -0.6,   -0.7,   -0.8,   -0.8,   -0.8,   -1.0,   -1.2,   -1.4,   -1.5,   -1.0,   -0.8,   -0.7,   -0.3,   -0.4,   -0.4
1999/07/14 17:30,    0.1,   -0.1,   -0.0,   -0.3,   -0.4,  999.0,   -0.6,   -0.7,   -0.7,   -0.7,   -0.6,  999.0,  999.0,  999.0,  999.0,  999.0,   -0.6,   -0.6,   -0.7,   -0.7,   -0.7,   -1.1,   -1.3,   -1.3,   -1.5,   -1.5,   -1.1,   -0.9,   -0.8,   -0.6,   -0.7,   -0.7
1999/07/14 17:40,    0.1,    0.1,   -0.0,   -0.2,   -0.2,   -0.2,   -0.4,   -0.5,   -0.5,   -0.7,   -0.6,   -0.5,   -0.5,  999.0,   -0.5,  999.0,  999.0,   -0.4,   -0.5,   -0.7,   -0.9,   -1.1,  999.0,   -1.3,   -1.6,   -1.6,   -1.1,   -0.9,   -0.8,   -0.7,   -0.7,   -0.7
1999/07/14 17:50,    0.1,   -0.0,   -0.0,   -0.1,   -0.1,   -0.2,  999.0,  999.0,  999.0,   -0.7,   -0.6,   -0.6,   -0.7,   -0.4,  999.0,  999.0,   -0.5,   -0.5,  999.0,   -0.6,   -0.7,   -0.9,   -1.0,   -1.1,   -1.4,   -1.5,   -1.0,   -0.9,  999.0,   -0.4,   -0.5,   -0.5
1999/07/14 18:00,    0.1,   -0.1,   -0.1,   -0.2,   -0.1,   -0.1,  999.0,   -0.4,   -0.5,   -0.7,   -0.6,   -0.6,   -0.5,   -0.3,  999.0,   -0.7,   -0.7,   -0.7,   -0.8,   -0.8,   -0.9,   -1.1,   -1.1,   -1.3,   -1.6,   -1.6,   -1.2,   -1.0,  999.0,   -0.5,   -0.6,   -0.7
1999/07/14 18:10,   -0.2,   -0.1,    0.0,   -0.2,   -0.1,   -0.2,   -0.2,   -0.2,   -0.2,   -0.5,   -0.6,  999.0,   -0.5,   -0.4,   -0.5,   -0.6,   -0.7,  999.0,   -0.8,   -0.7,   -0.9,   -1.1,   -1.0,   -1.3,   -1.5,   -1.4,   -1.1,   -0.9,   -0.7,   -0.5,   -0.6,   -0.7
1999/07/14 18:20,    0.1,   -0.0,   -0.1,   -0.3,   -0.1,   -0.1,   -0.2,   -0.3,   -0.5,   -0.6,   -0.7,   -0.6,   -0.5,   -0.5,   -0.6,   -0.8,   -0.8,   -0.8,   -0.7,   -0.7,   -0.8,   -0.9,   -1.1,   -1.3,   -1.5,   -1.5,   -1.2,   -1.0,   -0.8,   -0.6,   -0.7,   -0.8
1999/07/14 18:30,   -0.0,   -0.1,   -0.2,   -0.1,  999.0,   -0.1,   -0.2,  999.0,  999.0,   -0.6,   -0.7,   -0.5,   -0.5,   -0.5,   -0.5,   -0.7,   -0.9,   -0.8,   -0.7,   -0.7,   -0.7,   -0.9,   -1.0,   -1.2,   -1.5,   -1.3,   -1.0,   -0.8,  999.0,  999.0,   -0.6,   -0.6
1999/07/14 18:40,    0.0,   -0.1,   -0.1,   -0.1,   -0.0,   -0.1,   -0.1,   -0.2,   -0.4,   -0.5,   -0.5,  999.0,   -0.4,   -0.5,   -0.7,  999.0,   -0.8,   -0.8,   -0.7,   -0.7,   -0.9,  999.0,   -1.2,   -1.3,   -1.4,   -1.3,   -1.0,   -0.9,   -0.7,   -0.6,   -0.7,   -0.8
1999/07/14 18:50,    0.0,   -0.1,   -0.1,   -0.1,   -0.1,   -0.1,   -0.0,   -0.2,   -0.2,   -0.5,   -0.4,  999.0,   -0.3,   -0.5,   -0.7,   -0.8,   -0.7,   -0.8,   -0.7,   -0.7,   -0.9,   -1.1,   -1.2,   -1.3,   -1.3,   -1.2,   -1.0,   -0.8,   -0.8,   -0.7,   -0.7,   -0.8
1999/07/14 19:00,    0.3,   -0.0,   -0.1,   -0.1,   -0.1,   -0.0,   -0.1,   -0.1,   -0.2,   -0.5,   -0.4,   -0.3,   -0.4,   -0.6,  999.0,   -0.8,   -0.9,   -0.8,   -0.6,   -0.6,   -0.7,   -1.0,   -1.1,   -1.2,   -1.1,   -0.9,   -0.7,   -0.7,   -0.6,   -0.7,   -0.7,   -0.7
1999/07/14 19:10,    0.2,   -0.1,   -0.1,   -0.1,    0.1,    0.0,   -0.1,   -0.1,   -0.2,   -0.5,   -0.5,   -0.5,   -0.7,   -0.7,   -0.8,   -0.9,   -1.1,   -1.0,   -0.8,   -0.7,   -0.9,   -1.1,   -1.2,   -1.2,   -1.1,   -0.8,   -0.6,   -0.6,   -0.6,   -0.7,   -0.7,   -0.8
1999/07/14 19:20,    0.3,   -0.3,   -0.2,   -0.0,   -0.1,   -0.3,   -0.2,    0.0,   -0.2,   -0.2,  999.0,   -0.4,   -0.6,   -0.7,   -0.8,   -0.9,   -0.8,   -0.8,   -0.7,   -0.7,   -1.0,   -1.1,  999.0,   -1.3,   -1.0,   -0.9,   -0.7,   -0.8,   -0.8,   -0.8,   -0.9,   -0.8
1999/07/14 19:30,    0.3,   -0.2,   -0.3,   -0.2,   -0.1,   -0.2,   -0.1,   -0.2,   -0.3,  999.0,   -0.6,   -0.4,   -0.6,   -0.6,   -0.8,   -1.0,   -1.0,   -0.7,  999.0,  999.0,   -0.8,   -1.1,   -1.1,   -1.3,   -1.2,   -0.8,   -0.7,   -0.6,   -0.6,   -0.7,   -0.8,   -0.8
1999/07/14 19:40,    0.4,  999.0,   -0.2,   -0.1,  999.0,   -0.1,   -0.0,   -0.1,   -0.4,  999.0,  999.0,   -0.2,  999.0,   -0.4,   -0.8,   -0.9,   -1.2,  999.0,   -0.8,   -0.8,   -0.9,   -1.1,   -1.1,   -1.5,  999.0,   -1.3,   -0.9,   -0.8,  999.0,   -0.9,   -0.8,   -0.9
1999/07/14 19:50,    0.2,   -0.3,   -0.1,   -0.0,   -0.1,   -0.1,   -0.0,    0.0,   -0.2,  999.0,   -0.6,  999.0,   -0.6,   -0.6,   -0.7,   -0.9,   -1.0,   -1.0,   -0.8,   -0.9,   -1.1,   -1.3,   -1.1,   -1.2,   -1.3,   -1.0,   -0.8,   -0.8,   -0.8,   -0.9,   -0.9,   -0.9
1999/07/14 20:00,    0.2,    0.0,    0.1,   -0.0,    0.0,    0.0,   -0.0,   -0.1,   -0.2,   -0.6,   -0.6,   -0.7,   -0.8,   -0.6,   -0.6,  999.0,   -0.8,   -0.7,  999.0,   -1.1,   -1.4,   -1.6,   -1.5,   -1.5,   -1.3,   -1.2,   -0.8,   -0.9,   -0.8,   -1.0,   -1.1,   -1.1
1999/07/14 20:10,    0.4,    0.1,    0.1,   -0.0,   -0.2,   -0.0,   -0.1,   -0.2,   -0.3,   -0.4,   -0.4,  999.0,   -0.7,   -0.7,   -0.7,   -0.7,   -0.8,   -0.7,  999.0,   -0.8,   -1.2,   -1.2,   -1.3,   -1.6,   -1.4,   -1.1,   -0.8,   -0.9,   -1.0,   -1.0,   -1.1,   -1.2
1999/07/14 20:20,    0.4,    0.1,   -0.0,   -0.2,   -0.2,   -0.2,   -0.2,   -0.5,   -0.6,  999.0,   -0.3,   -0.4,   -0.6,   -0.6,   -0.8,   -0.8,   -0.9,   -0.9,   -0.8,   -0.9,   -1.2,   -1.0,   -1.2,   -1.6,   -1.5,   -1.3,   -0.9,   -0.9,   -0.9,   -1.0,   -1.2,   -1.3
1999/07/14 20:30,    0.4,    0.2,    0.0,   -0.0,   -0.2,   -0.1,   -0.1,   -0.5,   -0.7,   -0.3,   -0.3,   -0.3,  999.0,   -0.7,   -0.9,   -0.9,   -0.9,   -0.7,   -0.6,   -0.9,   -1.2,   -1.5,   -1.8,   -2.2,   -1.5,   -1.4,   -0.8,   -0.8,   -0.9,   -1.1,   -1.1,   -1.1
1999/07/14 20:40,    0.4,    0.2,   -0.1,   -0.1,   -0.0,   -0.1,   -0.1,   -0.4,   -0.6,  999.0,   -0.2,   -0.2,   -0.3,   -0.6,   -0.7,   -0.8,   -0.9,   -0.8,   -0.9,   -1.0,   -1.3,   -1.3,   -1.6,   -1.9,   -1.5,   -1.6,   -1.1,   -1.1,   -1.3,   -1.3,   -1.3,   -1.4
1999/07/14 20:50,    0.3,   -0.1,   -0.2,   -0.1,   -0.1,   -0.2,   -0.4,  999.0,   -0.6,   -0.7,   -0.2,   -0.2,   -0.3,   -0.5,   -0.5,   -0.3,  999.0,   -0.7,   -0.8,   -1.0,   -1.3,   -1.3,   -1.3,   -1.4,   -1.4,   -1.2,   -1.1,   -1.2,   -1.3,   -1.3,   -1.3,   -1.2
1999/07/14 21:00,    0.4,    0.2,    0.0,   -0.1,   -0.2,   -0.1,   -0.2,   -0.1,   -0.4,   -0.3,   -0.3,   -0.4,  999.0,   -0.8,   -0.8,   -0.6,   -0.8,   -1.0,  999.0,   -1.2,   -1.3,   -1.3,   -1.4,   -1.5,   -1.5,   -1.1,   -1.1,   -1.3,   -1.5,   -1.4,   -1.5,   -1.4
1999/07/14 21:10,    0.8,    0.4,    0.1,    0.1,   -0.1,   -0.2,   -0.2,  999.0,   -0.3,   -0.3,  999.0,   -0.3,   -0.4,   -0.7,   -0.6,   -0.7,   -0.9,   -0.9,   -0.9,   -1.3,   -1.2,   -1.3,   -1.6,   -1.6,   -1.4,   -1.3,   -1.3,   -1.3,   -1.4,   -1.5,   -1.4,   -1.4
1999/07/14 21:20,    0.7,    0.3,    0.1,    0.1,    0.1,   -0.0,   -0.2,   -0.4,   -0.5,   -0.6,   -0.3,   -0.3,   -0.4,   -0.7,   -0.7,   -0.5,   -0.8,   -0.9,   -0.9,   -1.4,   -1.6,   -1.5,   -1.4,   -1.5,   -1.4,   -1.2,   -1.2,   -1.2,   -1.4,   -1.4,   -1.4,   -1.3
1999/07/14 21:30,    0.9,    0.5,    0.1,   -0.0,   -0.0,   -0.0,   -0.1,   -0.5,   -0.3,   -0.5,  999.0,  999.0,   -0.6,   -0.7,   -0.6,   -0.6,   -0.8,   -1.0,   -0.9,   -1.5,   -1.6,   -1.5,   -1.4,   -1.3,   -1.2,   -1.2,   -1.2,   -1.2,   -1.5,   -1.6,   -1.6,   -1.6
1999/07/14 21:40,    0.7,    0.4,   -0.2,    0.1,    0.1,   -0.0,   -0.3,   -0.1,   -0.4,   -0.5,   -0.3,  999.0,   -0.5,   -0.7,  999.0,   -0.5,   -0.9,   -0.9,   -1.0,   -1.4,   -1.5,   -1.4,   -1.3,   -1.4,   -1.3,   -1.2,   -1.1,   -1.2,   -1.4,   -1.5,   -1.4,   -1.5
1999/07/14 21:50,    0.7,    0.6,   -0.1,   -0.2,   -0.1,   -0.1,   -0.1,   -0.1,   -0.2,   -0.6,   -0.5,   -0.5,   -0.7,   -0.5,   -0.2,   -0.3,   -0.8,   -1.0,   -1.2,   -1.4,   -1.4,   -1.7,   -1.6,   -1.7,   -1.4,   -1.3,   -1.2,   -1.5,   -1.6,  999.0,   -1.7,   -1.7
1999/07/14 22:00,    1.0,    0.8,   -0.2,   -0.3,   -0.2,   -0.1,   -0.1,   -0.2,  999.0,   -0.8,   -0.7,   -0.9,   -0.7,   -0.8,   -0.5,   -0.6,   -0.8,   -0.9,   -1.2,   -1.2,   -1.2,   -1.5,   -1.4,   -1.4,   -1.2,   -1.1,   -1.2,   -1.5,   -1.6,   -1.7,   -1.7,   -1.8
1999/07/14 22:10,    0.7,    0.6,    0.1,   -0.1,   -0.0,   -0.2,   -0.1,   -0.3,   -0.3,   -0.4,   -0.6,   -0.6,   -0.7,   -0.5,   -0.5,   -0.6,   -0.8,   -0.9,   -1.0,   -1.1,   -1.1,   -1.1,   -1.1,   -1.2,   -1.1,   -1.0,   -1.0,   -1.4,   -1.5,   -1.7,   -1.7,   -1.7
1999/07/14 22:20,    0.4,    0.3,    0.1,   -0.2,   -0.2,   -0.3,   -0.3,   -0.4,   -0.7,   -0.8,   -0.6,   -0.7,   -0.6,   -0.3,  999.0,   -0.7,   -1.0,   -1.2,  999.0,   -1.4,   -1.4,   -1.5,   -1.5,   -1.5,   -1.5,   -1.3,   -1.3,   -1.5,   -1.8,   -1.8,   -1.9,   -1.8
1999/07/14 22:30,    0.2,    0.1,   -0.2,   -0.3,   -0.3,   -0.4,   -0.4,   -0.6,   -0.7,   -0.7,   -0.7,   -0.7,  999.0,   -0.2,   -0.4,   -0.5,   -0.7,   -0.9,   -0.9,   -1.1,   -1.2,   -1.4,   -1.5,   -1.6,   -1.7,   -1.4,   -1.4,   -1.7,   -2.0,   -2.0,   -1.9,   -1.9
1999/07/14 22:40,    0.4,   -0.1,   -0.3,  999.0,   -0.2,   -0.2,   -0.2,   -0.3,   -0.6,   -0.7,   -0.7,   -0.6,   -0.7,  999.0,   -0.5,   -0.6,  999.0,  999.0,   -1.1,   -1.2,   -1.3,   -1.4,   -1.6,   -1.6,   -1.6,   -1.3,  999.0,  999.0,   -1.8,   -1.9,   -1.9,   -1.8
1999/07/14 22:50,    0.8,   -0.3,   -0.5,   -0.6,   -0.4,   -0.2,   -0.3,   -0.4,   -0.5,   -0.7,   -0.7,   -0.6,   -0.6,   -0.5,   -0.7,   -0.8,   -0.9,   -1.0,   -1.0,   -1.1,   -1.3,   -1.4,   -1.5,   -1.6,   -1.7,   -1.5,   -1.3,   -1.7,  999.0,   -1.8,   -1.8,   -1.7
1999/07/14 23:00,    0.7,   -0.2,   -0.5,   -0.4,   -0.2,   -0.3,   -0.5,   -0.5,   -0.5,   -0.7,   -0.5,   -0.4,   -0.4,   -0.2,   -0.6,   -0.8,   -0.8,   -1.0,   -1.2,   -1.4,   -1.5,   -1.5,   -1.6,   -1.8,   -1.7,   -1.5,   -1.5,   -1.7,   -2.0,   -1.9,   -1.9,   -1.8
1999/07/14 23:10,    0.9,    0.4,   -0.3,   -0.4,   -0.2,   -0.2,   -0.4,   -0.5,   -0.7,   -0.6,   -0.4,   -0.5,   -0.6,   -0.4,   -0.6,   -0.7,   -0.8,   -0.9,   -1.1,   -1.3,   -1.4,  999.0,   -1.5,   -1.6,   -1.7,   -1.4,   -1.4,   -1.6,   -2.0,   -2.2,   -2.0,   -1.8
1999/07/14 23:20,    0.6,    0.4,   -0.1,   -0.2,   -0.2,   -0.3,   -0.4,   -0.8,   -0.7,  999.0,   -0.6,   -0.4,   -0.6,   -0.5,   -0.6,   -0.7,   -0.6,   -0.8,   -1.0,   -1.3,   -1.4,   -1.5,   -1.6,   -1.7,   -1.6,   -1.3,   -1.3,   -1.7,   -2.0,  999.0,   -1.8,   -1.8
1999/07/14 23:30,    0.9,    0.3,    0.2,   -0.1,   -0.3,   -0.4,   -0.6,   -0.6,   -0.8,   -0.7,   -0.6,   -0.5,   -0.5,   -0.4,   -0.4,   -0.7,   -0.6,   -0.8,   -1.0,   -1.3,   -1.4,   -1.2,   -1.4,   -1.5,   -1.6,   -1.4,  999.0,   -1.6,   -2.0,   -2.2,   -2.1,   -2.0
1999/07/14 23:40,    0.7,    0.4,    0.2,    0.0,   -0.2,   -0.3,   -0.4,   -0.6,   -0.9,   -1.0,   -0.8,   -0.7,   -0.7,   -0.5,   -0.8,   -0.8,   -0.9,   -0.9,   -1.1,   -1.4,   -1.4,   -1.3,   -1.4,   -1.5,   -1.4,   -1.3,   -1.4,   -1.6,   -1.9,   -2.2,   -2.1,   -1.9
1999/07/14 23:50,    0.7,    0.4,    0.3,    0.1,   -0.2,   -0.2,   -0.4,   -0.6,   -0.7,   -0.7,   -0.7,   -0.7,   -0.7,   -0.7,   -0.9,   -1.1,   -1.1,   -1.0,  999.0,   -1.3,   -1.2,   -1.2,   -1.1,   -1.2,   -1.3,   -1.2,   -1.3,  999.0,   -1.9,   -2.2,   -2.3,   -2.3
